Time,TemperatureF,DewpointF,PressureIn,WindDirection,WindDirectionDegrees,WindSpeedMPH,WindSpeedGustMPH,Humidity,HourlyPrecipIn,Conditions,Clouds,dailyrainin,SoftwareType,DateUTC
2013-08-09 00:00:00,65.0,65.0,30.17,WNW,292,0.0,2.0,100,0.00,,,0.00,Weather View 32 v70,2013-08-09 05:00:00,
2013-08-09 00:05:00,65.0,65.0,30.17,WNW,292,0.0,2.0,100,0.00,,,0.00,Weather View 32 v70,2013-08-09 05:05:00,
2013-08-09 00:10:00,65.0,65.0,30.17,WNW,292,0.0,2.0,100,0.00,,,0.00,Weather View 32 v70,2013-08-09 05:10:00,
2013-08-09 00:20:00,65.0,65.0,30.17,WNW,292,2.0,3.0,100,0.00,,,0.00,Weather View 32 v70,2013-08-09 05:20:00,
2013-08-09 00:25:00,65.0,65.0,30.17,WNW,292,2.0,3.0,100,0.00,,,0.00,Weather View 32 v70,2013-08-09 05:25:00,
2013-08-09 00:30:00,64.0,64.0,30.18,WNW,292,0.0,3.0,100,0.00,,,0.00,Weather View 32 v70,2013-08-09 05:30:00,
2013-08-09 00:35:00,64.0,64.0,30.18,WNW,292,0.0,3.0,100,0.00,,,0.00,Weather View 32 v70,2013-08-09 05:35:00,
2013-08-09 00:45:00,64.0,64.0,30.18,WNW,292,0.0,3.0,100,0.00,,,0.00,Weather View 32 v70,2013-08-09 05:45:00,
2013-08-09 00:50:00,64.0,64.0,30.18,WNW,292,0.0,3.0,100,0.00,,,0.00,Weather View 32 v70,2013-08-09 05:50:00,
2013-08-09 00:55:00,64.0,64.0,30.18,WNW,292,0.0,3.0,100,0.00,,,0.00,Weather View 32 v70,2013-08-09 05:55:00,
2013-08-09 01:00:00,64.0,64.0,30.18,WNW,292,0.0,3.0,100,0.00,,,0.00,Weather View 32 v70,2013-08-09 06:00:00,
2013-08-09 01:10:00,63.0,63.0,30.20,WNW,292,0.0,3.0,100,0.00,,,0.00,Weather View 32 v70,2013-08-09 06:10:00,
2013-08-09 01:15:00,63.0,63.0,30.20,WNW,292,0.0,3.0,100,0.00,,,0.00,Weather View 32 v70,2013-08-09 06:15:00,
2013-08-09 01:20:00,63.0,63.0,30.20,WNW,292,0.0,3.0,100,0.00,,,0.00,Weather View 32 v70,2013-08-09 06:20:00,
2013-08-09 01:30:00,62.0,62.0,30.20,WNW,292,0.0,0.0,100,0.00,,,0.00,Weather View 32 v70,2013-08-09 06:30:00,
2013-08-09 01:35:00,62.0,62.0,30.20,WNW,292,0.0,0.0,100,0.00,,,0.00,Weather View 32 v70,2013-08-09 06:35:00,
2013-08-09 01:40:00,62.0,62.0,30.20,WNW,292,0.0,0.0,100,0.00,,,0.00,Weather View 32 v70,2013-08-09 06:40:00,
2013-08-09 01:45:00,62.0,62.0,30.20,WNW,292,0.0,0.0,100,0.00,,,0.00,Weather View 32 v70,2013-08-09 06:45:00,
2013-08-09 01:55:00,62.0,62.0,30.20,WNW,292,0.0,0.0,100,0.00,,,0.00,Weather View 32 v70,2013-08-09 06:55:00,
2013-08-09 02:00:00,61.0,61.0,30.20,WNW,292,2.0,3.0,100,0.00,,,0.00,Weather View 32 v70,2013-08-09 07:00:00,
2013-08-09 02:05:00,61.0,61.0,30.20,WNW,292,0.0,3.0,100,0.00,,,0.00,Weather View 32 v70,2013-08-09 07:05:00,
2013-08-09 02:10:00,61.0,61.0,30.20,WNW,292,0.0,3.0,100,0.00,,,0.00,Weather View 32 v70,2013-08-09 07:10:00,
2013-08-09 02:15:00,61.0,61.0,30.20,WNW,292,0.0,3.0,100,0.00,,,0.00,Weather View 32 v70,2013-08-09 07:15:00,
2013-08-09 02:25:00,60.0,60.0,30.20,WNW,292,1.0,3.0,100,0.00,,,0.00,Weather View 32 v70,2013-08-09 07:25:00,
2013-08-09 02:30:00,60.0,60.0,30.20,WNW,292,0.0,3.0,100,0.00,,,0.00,Weather View 32 v70,2013-08-09 07:30:00,
2013-08-09 02:40:00,60.0,60.0,30.20,WNW,292,1.0,3.0,100,0.00,,,0.00,Weather View 32 v70,2013-08-09 07:40:00,
2013-08-09 02:45:00,60.0,60.0,30.20,WNW,292,0.0,3.0,100,0.00,,,0.00,Weather View 32 v70,2013-08-09 07:45:00,
2013-08-09 02:50:00,60.0,60.0,30.20,WNW,292,0.0,3.0,100,0.00,,,0.00,Weather View 32 v70,2013-08-09 07:50:00,
2013-08-09 03:00:00,60.0,60.0,30.20,WNW,292,0.0,3.0,100,0.00,,,0.00,Weather View 32 v70,2013-08-09 08:00:00,
2013-08-09 03:10:00,59.0,59.0,30.20,WNW,292,0.0,3.0,100,0.00,,,0.00,Weather View 32 v70,2013-08-09 08:10:00,
2013-08-09 03:15:00,59.0,59.0,30.20,WNW,292,0.0,3.0,100,0.00,,,0.00,Weather View 32 v70,2013-08-09 08:15:00,
2013-08-09 03:20:00,59.0,59.0,30.21,WNW,292,0.0,3.0,100,0.00,,,0.00,Weather View 32 v70,2013-08-09 08:20:00,
2013-08-09 03:25:00,59.0,59.0,30.21,WNW,292,0.0,3.0,100,0.00,,,0.00,Weather View 32 v70,2013-08-09 08:25:00,
2013-08-09 03:35:00,58.0,58.0,30.22,WNW,292,0.0,2.0,100,0.00,,,0.00,Weather View 32 v70,2013-08-09 08:35:00,
2013-08-09 03:40:00,58.0,58.0,30.22,WNW,292,0.0,1.0,100,0.00,,,0.00,Weather View 32 v70,2013-08-09 08:40:00,
2013-08-09 03:45:00,58.0,58.0,30.22,WNW,292,0.0,1.0,100,0.00,,,0.00,Weather View 32 v70,2013-08-09 08:45:00,
2013-08-09 03:50:00,58.0,58.0,30.22,WNW,292,0.0,1.0,100,0.00,,,0.00,Weather View 32 v70,2013-08-09 08:50:00,
2013-08-09 04:00:00,59.0,59.0,30.22,WNW,292,0.0,1.0,100,0.00,,,0.00,Weather View 32 v70,2013-08-09 09:00:00,
2013-08-09 04:05:00,59.0,59.0,30.22,WNW,292,0.0,1.0,100,0.00,,,0.00,Weather View 32 v70,2013-08-09 09:05:00,
2013-08-09 04:10:00,59.0,59.0,30.22,WNW,292,0.0,0.0,100,0.00,,,0.00,Weather View 32 v70,2013-08-09 09:10:00,
2013-08-09 04:15:00,59.0,59.0,30.22,WNW,292,0.0,0.0,100,0.00,,,0.00,Weather View 32 v70,2013-08-09 09:15:00,
2013-08-09 04:25:00,58.0,58.0,30.21,WNW,292,0.0,0.0,100,0.00,,,0.00,Weather View 32 v70,2013-08-09 09:25:00,
2013-08-09 04:30:00,58.0,58.0,30.21,WNW,292,0.0,0.0,100,0.00,,,0.00,Weather View 32 v70,2013-08-09 09:30:00,
2013-08-09 04:35:00,58.0,58.0,30.21,WNW,292,0.0,0.0,100,0.00,,,0.00,Weather View 32 v70,2013-08-09 09:35:00,
2013-08-09 04:45:00,58.0,58.0,30.22,WNW,292,0.0,0.0,100,0.00,,,0.00,Weather View 32 v70,2013-08-09 09:45:00,
2013-08-09 04:50:00,58.0,58.0,30.22,WNW,292,0.0,0.0,100,0.00,,,0.00,Weather View 32 v70,2013-08-09 09:50:00,
2013-08-09 04:55:00,59.0,59.0,30.22,WNW,292,0.0,0.0,100,0.00,,,0.00,Weather View 32 v70,2013-08-09 09:55:00,
2013-08-09 05:00:00,59.0,59.0,30.21,WNW,292,0.0,0.0,100,0.00,,,0.00,Weather View 32 v70,2013-08-09 10:00:00,
2013-08-09 05:05:00,59.0,59.0,30.21,WNW,292,0.0,0.0,100,0.00,,,0.00,Weather View 32 v70,2013-08-09 10:05:00,
2013-08-09 05:15:00,59.0,59.0,30.21,WNW,292,0.0,0.0,100,0.00,,,0.00,Weather View 32 v70,2013-08-09 10:15:00,
2013-08-09 05:20:00,60.0,60.0,30.22,WNW,292,0.0,0.0,100,0.00,,,0.00,Weather View 32 v70,2013-08-09 10:20:00,
2013-08-09 05:25:00,60.0,60.0,30.22,WNW,292,0.0,0.0,100,0.00,,,0.00,Weather View 32 v70,2013-08-09 10:25:00,
2013-08-09 05:35:00,61.0,61.0,30.22,WNW,292,0.0,0.0,100,0.00,,,0.00,Weather View 32 v70,2013-08-09 10:35:00,
2013-08-09 05:40:00,61.0,61.0,30.22,WNW,292,0.0,0.0,100,0.00,,,0.00,Weather View 32 v70,2013-08-09 10:40:00,
2013-08-09 05:45:00,61.0,61.0,30.22,WNW,292,0.0,0.0,100,0.00,,,0.00,Weather View 32 v70,2013-08-09 10:45:00,
2013-08-09 05:50:00,61.0,61.0,30.21,WNW,292,0.0,0.0,100,0.00,,,0.00,Weather View 32 v70,2013-08-09 10:50:00,
2013-08-09 06:00:00,61.0,61.0,30.22,WNW,292,0.0,0.0,100,0.00,,,0.00,Weather View 32 v70,2013-08-09 11:00:00,
2013-08-09 06:05:00,61.0,61.0,30.22,WNW,292,0.0,0.0,100,0.00,,,0.00,Weather View 32 v70,2013-08-09 11:05:00,
2013-08-09 06:10:00,61.0,61.0,30.22,WNW,292,0.0,0.0,100,0.00,,,0.00,Weather View 32 v70,2013-08-09 11:10:00,
2013-08-09 06:15:00,62.0,62.0,30.22,WNW,292,3.0,5.0,100,0.00,,,0.00,Weather View 32 v70,2013-08-09 11:15:00,
2013-08-09 06:25:00,62.0,62.0,30.21,WNW,292,0.0,5.0,100,0.00,,,0.00,Weather View 32 v70,2013-08-09 11:25:00,
2013-08-09 06:30:00,62.0,62.0,30.21,WNW,292,0.0,5.0,100,0.00,,,0.00,Weather View 32 v70,2013-08-09 11:30:00,
2013-08-09 06:35:00,62.0,62.0,30.21,WNW,292,0.0,5.0,100,0.00,,,0.00,Weather View 32 v70,2013-08-09 11:35:00,
2013-08-09 06:40:00,62.0,62.0,30.22,WNW,292,0.0,5.0,100,0.00,,,0.00,Weather View 32 v70,2013-08-09 11:40:00,
2013-08-09 06:50:00,62.0,62.0,30.21,WNW,292,0.0,5.0,100,0.00,,,0.00,Weather View 32 v70,2013-08-09 11:50:00,
2013-08-09 06:55:00,62.0,62.0,30.21,WNW,292,0.0,5.0,100,0.00,,,0.00,Weather View 32 v70,2013-08-09 11:55:00,
2013-08-09 07:00:00,63.0,63.0,30.21,WNW,292,0.0,5.0,100,0.00,,,0.00,Weather View 32 v70,2013-08-09 12:00:00,
2013-08-09 07:05:00,63.0,63.0,30.21,WNW,292,0.0,5.0,100,0.00,,,0.00,Weather View 32 v70,2013-08-09 12:05:00,
2013-08-09 07:15:00,64.0,64.0,30.21,WNW,292,0.0,5.0,100,0.00,,,0.00,Weather View 32 v70,2013-08-09 12:15:00,
2013-08-09 07:20:00,64.0,64.0,30.21,NNW,337,0.0,4.0,100,0.00,,,0.00,Weather View 32 v70,2013-08-09 12:20:00,
2013-08-09 07:25:00,64.0,64.0,30.21,NNW,337,1.0,3.0,100,0.00,,,0.00,Weather View 32 v70,2013-08-09 12:25:00,
2013-08-09 07:30:00,65.0,65.0,30.20,NNW,337,0.0,3.0,100,0.00,,,0.00,Weather View 32 v70,2013-08-09 12:30:00,
2013-08-09 07:35:00,65.0,65.0,30.20,NNW,337,3.0,4.0,100,0.00,,,0.00,Weather View 32 v70,2013-08-09 12:35:00,
2013-08-09 07:40:00,66.0,66.0,30.20,NNW,337,3.0,4.0,100,0.00,,,0.00,Weather View 32 v70,2013-08-09 12:40:00,
2013-08-09 07:50:00,66.0,66.0,30.18,NW,315,6.0,7.0,100,0.00,,,0.00,Weather View 32 v70,2013-08-09 12:50:00,
2013-08-09 07:55:00,67.0,67.0,30.18,NW,315,5.0,9.0,100,0.00,,,0.00,Weather View 32 v70,2013-08-09 12:55:00,
2013-08-09 08:00:00,67.0,67.0,30.18,NW,315,5.0,9.0,100,0.00,,,0.00,Weather View 32 v70,2013-08-09 13:00:00,
2013-08-09 08:10:00,67.0,67.0,30.17,NW,315,7.0,10.0,100,0.00,,,0.00,Weather View 32 v70,2013-08-09 13:10:00,
2013-08-09 08:15:00,67.0,67.0,30.17,WNW,292,6.0,10.0,100,0.00,,,0.00,Weather View 32 v70,2013-08-09 13:15:00,
2013-08-09 08:20:00,68.0,68.0,30.17,NW,315,7.0,10.0,100,0.00,,,0.00,Weather View 32 v70,2013-08-09 13:20:00,
2013-08-09 08:25:00,68.0,68.0,30.17,NNW,337,5.0,10.0,100,0.00,,,0.00,Weather View 32 v70,2013-08-09 13:25:00,
2013-08-09 08:35:00,69.0,69.0,30.16,NW,315,6.0,11.0,100,0.00,,,0.00,Weather View 32 v70,2013-08-09 13:35:00,
2013-08-09 08:40:00,69.0,68.4,30.16,NW,315,8.0,11.0,98,0.00,,,0.00,Weather View 32 v70,2013-08-09 13:40:00,
2013-08-09 08:45:00,70.0,69.7,30.16,NW,315,9.0,11.0,99,0.00,,,0.00,Weather View 32 v70,2013-08-09 13:45:00,
2013-08-09 08:50:00,71.0,69.5,30.15,NNW,337,5.0,11.0,95,0.00,,,0.00,Weather View 32 v70,2013-08-09 13:50:00,
2013-08-09 08:55:00,71.0,68.2,30.15,NNW,337,7.0,11.0,91,0.00,,,0.00,Weather View 32 v70,2013-08-09 13:55:00,
2013-08-09 09:05:00,72.0,68.6,30.15,North,360,8.0,11.0,89,0.00,,,0.00,Weather View 32 v70,2013-08-09 14:05:00,
2013-08-09 09:10:00,72.0,67.6,30.15,NNE,22,9.0,12.0,86,0.00,,,0.00,Weather View 32 v70,2013-08-09 14:10:00,
2013-08-09 09:15:00,72.0,67.6,30.15,NE,45,6.0,12.0,86,0.00,,,0.00,Weather View 32 v70,2013-08-09 14:15:00,
2013-08-09 09:20:00,72.0,67.6,30.15,North,360,7.0,12.0,86,0.00,,,0.00,Weather View 32 v70,2013-08-09 14:20:00,
2013-08-09 09:30:00,72.0,67.2,30.15,NNE,22,9.0,12.0,85,0.00,,,0.00,Weather View 32 v70,2013-08-09 14:30:00,
2013-08-09 09:35:00,72.0,66.9,30.15,North,360,8.0,12.0,84,0.00,,,0.00,Weather View 32 v70,2013-08-09 14:35:00,
2013-08-09 09:40:00,72.0,67.6,30.16,NNE,22,6.0,12.0,86,0.00,,,0.00,Weather View 32 v70,2013-08-09 14:40:00,
2013-08-09 09:45:00,72.0,66.9,30.16,NNW,337,7.0,12.0,84,0.00,,,0.00,Weather View 32 v70,2013-08-09 14:45:00,
2013-08-09 09:54:00,72.0,66.9,30.16,NE,45,10.0,12.0,84,0.00,,,0.00,Weather View 32 v70,2013-08-09 14:54:00,
2013-08-09 10:00:00,72.0,66.9,30.16,NNE,22,8.0,12.0,84,0.00,,,0.00,Weather View 32 v70,2013-08-09 15:00:00,
2013-08-09 10:05:00,73.0,67.9,30.16,NNE,22,7.0,13.0,84,0.00,,,0.00,Weather View 32 v70,2013-08-09 15:05:00,
2013-08-09 10:10:00,73.0,67.2,30.15,NNW,337,9.0,13.0,82,0.00,,,0.00,Weather View 32 v70,2013-08-09 15:10:00,
2013-08-09 10:20:00,74.0,66.7,30.16,North,360,8.0,13.0,78,0.00,,,0.00,Weather View 32 v70,2013-08-09 15:20:00,
2013-08-09 10:25:00,75.0,66.5,30.16,NNW,337,8.0,13.0,75,0.00,,,0.00,Weather View 32 v70,2013-08-09 15:25:00,
2013-08-09 10:30:00,76.0,68.6,30.15,North,360,6.0,13.0,78,0.00,,,0.00,Weather View 32 v70,2013-08-09 15:30:00,
2013-08-09 10:35:00,76.0,67.1,30.15,NNW,337,9.0,13.0,74,0.00,,,0.00,Weather View 32 v70,2013-08-09 15:35:00,
2013-08-09 10:40:00,76.0,67.9,30.14,NNW,337,11.0,14.0,76,0.00,,,0.00,Weather View 32 v70,2013-08-09 15:40:00,
2013-08-09 10:50:00,75.0,67.3,30.16,North,360,6.0,14.0,77,0.00,,,0.00,Weather View 32 v70,2013-08-09 15:50:00,
2013-08-09 10:55:00,74.0,66.3,30.16,NNW,337,14.0,16.0,77,0.00,,,0.00,Weather View 32 v70,2013-08-09 15:55:00,
2013-08-09 11:00:00,75.0,67.6,30.16,NW,315,8.0,16.0,78,0.00,,,0.00,Weather View 32 v70,2013-08-09 16:00:00,
2013-08-09 11:05:00,76.0,67.1,30.16,NNE,22,6.0,16.0,74,0.00,,,0.00,Weather View 32 v70,2013-08-09 16:05:00,
2013-08-09 11:15:00,76.0,67.1,30.15,NNW,337,9.0,16.0,74,0.00,,,0.00,Weather View 32 v70,2013-08-09 16:15:00,
2013-08-09 11:20:00,75.0,66.5,30.16,NNE,22,12.0,16.0,75,0.00,,,0.00,Weather View 32 v70,2013-08-09 16:20:00,
2013-08-09 11:25:00,76.0,67.1,30.16,NNW,337,10.0,16.0,74,0.00,,,0.00,Weather View 32 v70,2013-08-09 16:25:00,
2013-08-09 11:30:00,76.0,66.7,30.16,North,360,6.0,16.0,73,0.00,,,0.00,Weather View 32 v70,2013-08-09 16:30:00,
2013-08-09 11:40:00,76.0,66.7,30.16,NNE,22,10.0,16.0,73,0.00,,,0.00,Weather View 32 v70,2013-08-09 16:40:00,
2013-08-09 11:45:00,75.0,66.5,30.16,NNE,22,6.0,16.0,75,0.00,,,0.00,Weather View 32 v70,2013-08-09 16:45:00,
2013-08-09 11:50:00,74.0,66.3,30.17,NNE,22,8.0,16.0,77,0.00,,,0.00,Weather View 32 v70,2013-08-09 16:50:00,
2013-08-09 11:55:00,74.0,66.7,30.17,NNE,22,10.0,16.0,78,0.00,,,0.00,Weather View 32 v70,2013-08-09 16:55:00,
2013-08-09 12:05:00,75.0,66.9,30.17,NE,45,9.0,16.0,76,0.00,,,0.00,Weather View 32 v70,2013-08-09 17:05:00,
2013-08-09 12:10:00,76.0,68.6,30.17,NE,45,2.0,16.0,78,0.00,,,0.00,Weather View 32 v70,2013-08-09 17:10:00,
2013-08-09 12:15:00,75.0,67.3,30.17,North,360,5.0,16.0,77,0.00,,,0.00,Weather View 32 v70,2013-08-09 17:15:00,
2013-08-09 12:20:00,75.0,66.5,30.16,North,360,4.0,16.0,75,0.00,,,0.00,Weather View 32 v70,2013-08-09 17:20:00,
2013-08-09 12:30:00,76.0,67.1,30.16,ENE,67,4.0,16.0,74,0.00,,,0.00,Weather View 32 v70,2013-08-09 17:30:00,
2013-08-09 12:35:00,76.0,67.1,30.16,NNE,22,6.0,16.0,74,0.00,,,0.00,Weather View 32 v70,2013-08-09 17:35:00,
2013-08-09 12:40:00,76.0,65.9,30.16,NNE,22,7.0,16.0,71,0.00,,,0.00,Weather View 32 v70,2013-08-09 17:40:00,
2013-08-09 12:45:00,76.0,65.9,30.16,NNE,22,8.0,16.0,71,0.00,,,0.00,Weather View 32 v70,2013-08-09 17:45:00,
2013-08-09 12:50:00,77.0,66.0,30.16,NNE,22,7.0,16.0,69,0.00,,,0.00,Weather View 32 v70,2013-08-09 17:50:00,
2013-08-09 12:55:00,77.0,66.0,30.16,NNE,22,9.0,16.0,69,0.00,,,0.00,Weather View 32 v70,2013-08-09 17:55:00,
2013-08-09 13:05:00,77.0,64.7,30.16,NNE,22,11.0,18.0,66,0.00,,,0.00,Weather View 32 v70,2013-08-09 18:05:00,
2013-08-09 13:10:00,77.0,63.4,30.16,NNE,22,7.0,18.0,63,0.00,,,0.00,Weather View 32 v70,2013-08-09 18:10:00,
2013-08-09 13:15:00,77.0,63.4,30.16,NNE,22,10.0,18.0,63,0.00,,,0.00,Weather View 32 v70,2013-08-09 18:15:00,
2013-08-09 13:25:00,77.0,63.8,30.16,ENE,67,7.0,18.0,64,0.00,,,0.00,Weather View 32 v70,2013-08-09 18:25:00,
2013-08-09 13:30:00,76.0,62.9,30.16,NNE,22,9.0,18.0,64,0.00,,,0.00,Weather View 32 v70,2013-08-09 18:30:00,
2013-08-09 13:35:00,76.0,63.8,30.16,North,360,7.0,18.0,66,0.00,,,0.00,Weather View 32 v70,2013-08-09 18:35:00,
2013-08-09 13:40:00,77.0,63.8,30.15,NNW,337,8.0,18.0,64,0.00,,,0.00,Weather View 32 v70,2013-08-09 18:40:00,
2013-08-09 13:50:00,77.0,63.8,30.16,ENE,67,4.0,18.0,64,0.00,,,0.00,Weather View 32 v70,2013-08-09 18:50:00,
2013-08-09 13:55:00,77.0,63.8,30.16,NNW,337,10.0,18.0,64,0.00,,,0.00,Weather View 32 v70,2013-08-09 18:55:00,
2013-08-09 14:00:00,77.0,63.8,30.16,NNE,22,6.0,16.0,64,0.00,,,0.00,Weather View 32 v70,2013-08-09 19:00:00,
2013-08-09 14:05:00,77.0,62.9,30.16,NNW,337,7.0,16.0,62,0.00,,,0.00,Weather View 32 v70,2013-08-09 19:05:00,
2013-08-09 14:15:00,77.0,63.4,30.16,East,90,4.0,14.0,63,0.00,,,0.00,Weather View 32 v70,2013-08-09 19:15:00,
2013-08-09 14:20:00,78.0,64.3,30.16,ENE,67,4.0,14.0,63,0.00,,,0.00,Weather View 32 v70,2013-08-09 19:20:00,
2013-08-09 14:25:00,78.0,62.9,30.16,NNW,337,8.0,14.0,60,0.00,,,0.00,Weather View 32 v70,2013-08-09 19:25:00,
2013-08-09 14:30:00,78.0,62.9,30.15,NNE,22,9.0,14.0,60,0.00,,,0.00,Weather View 32 v70,2013-08-09 19:30:00,
2013-08-09 14:40:00,78.0,62.9,30.15,North,360,8.0,14.0,60,0.00,,,0.00,Weather View 32 v70,2013-08-09 19:40:00,
2013-08-09 14:45:00,78.0,62.9,30.15,North,360,8.0,14.0,60,0.00,,,0.00,Weather View 32 v70,2013-08-09 19:45:00,
2013-08-09 14:50:00,78.0,62.9,30.15,NNE,22,6.0,14.0,60,0.00,,,0.00,Weather View 32 v70,2013-08-09 19:50:00,
2013-08-09 14:55:00,77.0,62.0,30.15,NNE,22,9.0,14.0,60,0.00,,,0.00,Weather View 32 v70,2013-08-09 19:55:00,
2013-08-09 15:05:00,78.0,63.4,30.15,NNE,22,5.0,14.0,61,0.00,,,0.00,Weather View 32 v70,2013-08-09 20:05:00,
2013-08-09 15:10:00,78.0,62.0,30.15,NNE,22,8.0,17.0,58,0.00,,,0.00,Weather View 32 v70,2013-08-09 20:10:00,
2013-08-09 15:15:00,78.0,62.0,30.15,NE,45,10.0,17.0,58,0.00,,,0.00,Weather View 32 v70,2013-08-09 20:15:00,
2013-08-09 15:20:00,78.0,62.0,30.15,NNE,22,10.0,17.0,58,0.00,,,0.00,Weather View 32 v70,2013-08-09 20:20:00,
2013-08-09 15:30:00,77.0,59.5,30.16,ENE,67,7.0,17.0,55,0.00,,,0.00,Weather View 32 v70,2013-08-09 20:30:00,
2013-08-09 15:35:00,77.0,59.5,30.16,North,360,8.0,17.0,55,0.00,,,0.00,Weather View 32 v70,2013-08-09 20:35:00,
2013-08-09 15:40:00,77.0,58.5,30.15,NE,45,8.0,17.0,53,0.00,,,0.00,Weather View 32 v70,2013-08-09 20:40:00,
2013-08-09 15:45:00,77.0,56.9,30.15,NNE,22,10.0,17.0,50,0.00,,,0.00,Weather View 32 v70,2013-08-09 20:45:00,
2013-08-09 15:50:00,77.0,59.0,30.15,NNW,337,4.0,17.0,54,0.00,,,0.00,Weather View 32 v70,2013-08-09 20:50:00,
2013-08-09 15:57:00,77.0,58.0,30.15,NE,45,7.0,17.0,52,0.00,,,0.00,Weather View 32 v70,2013-08-09 20:57:00,
2013-08-09 16:05:00,78.0,60.5,30.15,NNE,22,6.0,17.0,55,0.00,,,0.00,Weather View 32 v70,2013-08-09 21:05:00,
2013-08-09 16:10:00,78.0,60.5,30.15,NNW,337,5.0,15.0,55,0.00,,,0.00,Weather View 32 v70,2013-08-09 21:10:00,
2013-08-09 16:15:00,78.0,60.5,30.15,NNE,22,4.0,15.0,55,0.00,,,0.00,Weather View 32 v70,2013-08-09 21:15:00,
2013-08-09 16:25:00,78.0,59.4,30.15,ESE,112,2.0,15.0,53,0.00,,,0.00,Weather View 32 v70,2013-08-09 21:25:00,
2013-08-09 16:30:00,78.0,60.0,30.14,NE,45,2.0,14.0,54,0.00,,,0.00,Weather View 32 v70,2013-08-09 21:30:00,
2013-08-09 16:35:00,79.0,59.3,30.14,NNE,22,8.0,14.0,51,0.00,,,0.00,Weather View 32 v70,2013-08-09 21:35:00,
2013-08-09 16:40:00,78.0,59.4,30.14,NNE,22,11.0,15.0,53,0.00,,,0.00,Weather View 32 v70,2013-08-09 21:40:00,
2013-08-09 16:50:00,79.0,59.3,30.15,NE,45,8.0,15.0,51,0.00,,,0.00,Weather View 32 v70,2013-08-09 21:50:00,
2013-08-09 16:55:00,78.0,58.9,30.15,NNW,337,7.0,15.0,52,0.00,,,0.00,Weather View 32 v70,2013-08-09 21:55:00,
2013-08-09 17:00:00,79.0,59.8,30.15,NNE,22,6.0,15.0,52,0.00,,,0.00,Weather View 32 v70,2013-08-09 22:00:00,
2013-08-09 17:05:00,78.0,58.3,30.15,NE,45,11.0,15.0,51,0.00,,,0.00,Weather View 32 v70,2013-08-09 22:05:00,
2013-08-09 17:10:00,78.0,58.3,30.15,NE,45,10.0,15.0,51,0.00,,,0.00,Weather View 32 v70,2013-08-09 22:10:00,
2013-08-09 17:20:00,78.0,57.8,30.15,NNE,22,4.0,15.0,50,0.00,,,0.00,Weather View 32 v70,2013-08-09 22:20:00,
2013-08-09 17:30:00,79.0,58.1,30.14,NNE,22,5.0,15.0,49,0.00,,,0.00,Weather View 32 v70,2013-08-09 22:30:00,
2013-08-09 17:35:00,79.0,57.6,30.14,NNE,22,3.0,15.0,48,0.00,,,0.00,Weather View 32 v70,2013-08-09 22:35:00,
2013-08-09 17:45:00,80.0,57.9,30.14,NNE,22,9.0,15.0,47,0.00,,,0.00,Weather View 32 v70,2013-08-09 22:45:00,
2013-08-09 17:50:00,79.0,56.4,30.14,NNE,22,8.0,15.0,46,0.00,,,0.00,Weather View 32 v70,2013-08-09 22:50:00,
2013-08-09 17:55:00,79.0,57.6,30.14,NE,45,6.0,15.0,48,0.00,,,0.00,Weather View 32 v70,2013-08-09 22:55:00,
2013-08-09 18:00:00,79.0,56.4,30.14,NE,45,4.0,15.0,46,0.00,,,0.00,Weather View 32 v70,2013-08-09 23:00:00,
2013-08-09 18:10:00,79.0,57.0,30.14,East,90,2.0,15.0,47,0.00,,,0.00,Weather View 32 v70,2013-08-09 23:10:00,
2013-08-09 18:15:00,79.0,57.0,30.14,NNE,22,7.0,15.0,47,0.00,,,0.00,Weather View 32 v70,2013-08-09 23:15:00,
2013-08-09 18:20:00,79.0,57.6,30.14,NNE,22,10.0,15.0,48,0.00,,,0.00,Weather View 32 v70,2013-08-09 23:20:00,
2013-08-09 18:25:00,79.0,58.1,30.14,ESE,112,2.0,12.0,49,0.00,,,0.00,Weather View 32 v70,2013-08-09 23:25:00,
2013-08-09 18:30:00,79.0,57.0,30.14,NNE,22,7.0,12.0,47,0.00,,,0.00,Weather View 32 v70,2013-08-09 23:30:00,
2013-08-09 18:40:00,78.0,56.7,30.14,NNE,22,6.0,12.0,48,0.00,,,0.00,Weather View 32 v70,2013-08-09 23:40:00,
2013-08-09 18:45:00,78.0,57.2,30.14,NE,45,10.0,12.0,49,0.00,,,0.00,Weather View 32 v70,2013-08-09 23:45:00,
2013-08-09 18:50:00,78.0,57.8,30.14,NNE,22,6.0,12.0,50,0.00,,,0.00,Weather View 32 v70,2013-08-09 23:50:00,
2013-08-09 18:55:00,78.0,58.3,30.14,NE,45,4.0,12.0,51,0.00,,,0.00,Weather View 32 v70,2013-08-09 23:55:00,
2013-08-09 19:00:00,78.0,56.7,30.14,North,360,6.0,12.0,48,0.00,,,0.00,Weather View 32 v70,2013-08-10 00:00:00,
2013-08-09 19:10:00,77.0,57.4,30.14,NNE,22,4.0,12.0,51,0.00,,,0.00,Weather View 32 v70,2013-08-10 00:10:00,
2013-08-09 19:15:00,77.0,58.5,30.14,NNE,22,4.0,12.0,53,0.00,,,0.00,Weather View 32 v70,2013-08-10 00:15:00,
2013-08-09 19:20:00,77.0,58.0,30.16,NNE,22,5.0,11.0,52,0.00,,,0.00,Weather View 32 v70,2013-08-10 00:20:00,
2013-08-09 19:25:00,77.0,58.5,30.16,NNE,22,3.0,11.0,53,0.00,,,0.00,Weather View 32 v70,2013-08-10 00:25:00,
2013-08-09 19:30:00,77.0,58.5,30.16,NNE,22,5.0,11.0,53,0.00,,,0.00,Weather View 32 v70,2013-08-10 00:30:00,
2013-08-09 19:40:00,76.0,58.1,30.16,NNE,22,5.0,11.0,54,0.00,,,0.00,Weather View 32 v70,2013-08-10 00:40:00,
2013-08-09 19:45:00,76.0,58.6,30.16,NNE,22,4.0,10.0,55,0.00,,,0.00,Weather View 32 v70,2013-08-10 00:45:00,
2013-08-09 19:50:00,76.0,59.6,30.17,NNE,22,2.0,8.0,57,0.00,,,0.00,Weather View 32 v70,2013-08-10 00:50:00,
2013-08-09 19:55:00,75.0,59.2,30.17,NNE,22,0.0,8.0,58,0.00,,,0.00,Weather View 32 v70,2013-08-10 00:55:00,
2013-08-09 20:00:00,75.0,59.7,30.18,NNE,22,0.0,8.0,59,0.00,,,0.00,Weather View 32 v70,2013-08-10 01:00:00,
2013-08-09 20:10:00,74.0,59.7,30.19,NNE,22,0.0,6.0,61,0.00,,,0.00,Weather View 32 v70,2013-08-10 01:10:00,
2013-08-09 20:15:00,73.0,58.2,30.19,NNE,22,0.0,6.0,60,0.00,,,0.00,Weather View 32 v70,2013-08-10 01:15:00,
2013-08-09 20:20:00,72.0,57.8,30.20,NNE,22,0.0,6.0,61,0.00,,,0.00,Weather View 32 v70,2013-08-10 01:20:00,
2013-08-09 20:25:00,71.0,57.7,30.20,NNE,22,0.0,6.0,63,0.00,,,0.00,Weather View 32 v70,2013-08-10 01:25:00,
2013-08-09 20:35:00,69.0,56.7,30.22,NNE,22,0.0,6.0,65,0.00,,,0.00,Weather View 32 v70,2013-08-10 01:35:00,
2013-08-09 20:40:00,68.0,56.6,30.24,NNE,22,0.0,6.0,67,0.00,,,0.00,Weather View 32 v70,2013-08-10 01:40:00,
2013-08-09 20:45:00,67.0,56.1,30.24,NNE,22,0.0,6.0,68,0.00,,,0.00,Weather View 32 v70,2013-08-10 01:45:00,
2013-08-09 20:50:00,66.0,55.9,30.25,NNE,22,0.0,3.0,70,0.00,,,0.00,Weather View 32 v70,2013-08-10 01:50:00,
2013-08-09 20:55:00,65.0,56.1,30.25,NNE,22,1.0,3.0,73,0.00,,,0.00,Weather View 32 v70,2013-08-10 01:55:00,
2013-08-09 21:05:00,64.0,56.6,30.25,NNE,22,0.0,2.0,77,0.00,,,0.00,Weather View 32 v70,2013-08-10 02:05:00,
2013-08-09 21:10:00,64.0,57.3,30.26,NNE,22,0.0,3.0,79,0.00,,,0.00,Weather View 32 v70,2013-08-10 02:10:00,
2013-08-09 21:15:00,63.0,56.7,30.26,NNE,22,0.0,3.0,80,0.00,,,0.00,Weather View 32 v70,2013-08-10 02:15:00,
2013-08-09 21:20:00,63.0,57.4,30.27,NNE,22,0.0,3.0,82,0.00,,,0.00,Weather View 32 v70,2013-08-10 02:20:00,
2013-08-09 21:25:00,62.0,56.8,30.27,NNE,22,0.0,3.0,83,0.00,,,0.00,Weather View 32 v70,2013-08-10 02:25:00,
2013-08-09 21:35:00,62.0,57.1,30.28,NNE,22,0.0,3.0,84,0.00,,,0.00,Weather View 32 v70,2013-08-10 02:35:00,
2013-08-09 21:40:00,61.0,56.8,30.29,NNE,22,0.0,3.0,86,0.00,,,0.00,Weather View 32 v70,2013-08-10 02:40:00,
2013-08-09 21:45:00,61.0,57.1,30.29,NNE,22,0.0,3.0,87,0.00,,,0.00,Weather View 32 v70,2013-08-10 02:45:00,
2013-08-09 21:50:00,61.0,57.1,30.28,NNE,22,0.0,3.0,87,0.00,,,0.00,Weather View 32 v70,2013-08-10 02:50:00,
2013-08-09 21:55:00,61.0,57.4,30.28,NNE,22,0.0,3.0,88,0.00,,,0.00,Weather View 32 v70,2013-08-10 02:55:00,
2013-08-09 22:00:00,61.0,57.7,30.30,NNE,22,0.0,3.0,89,0.00,,,0.00,Weather View 32 v70,2013-08-10 03:00:00,
2013-08-09 22:10:00,60.0,57.0,30.30,NNE,22,1.0,2.0,90,0.00,,,0.00,Weather View 32 v70,2013-08-10 03:10:00,
2013-08-09 22:20:00,60.0,57.4,30.30,NNE,22,0.0,2.0,91,0.00,,,0.00,Weather View 32 v70,2013-08-10 03:20:00,
2013-08-09 22:25:00,60.0,57.7,30.30,NNE,22,0.0,2.0,92,0.00,,,0.00,Weather View 32 v70,2013-08-10 03:25:00,
2013-08-09 22:30:00,59.0,56.7,30.30,NNE,22,0.0,2.0,92,0.00,,,0.00,Weather View 32 v70,2013-08-10 03:30:00,
2013-08-09 22:40:00,59.0,57.3,30.31,NNE,22,1.0,2.0,94,0.00,,,0.00,Weather View 32 v70,2013-08-10 03:40:00,
2013-08-09 22:45:00,59.0,57.3,30.31,NNE,22,0.0,2.0,94,0.00,,,0.00,Weather View 32 v70,2013-08-10 03:45:00,
2013-08-09 22:50:00,59.0,57.3,30.32,NNE,22,0.0,2.0,94,0.00,,,0.00,Weather View 32 v70,2013-08-10 03:50:00,
2013-08-09 22:55:00,59.0,57.6,30.32,NNE,22,0.0,2.0,95,0.00,,,0.00,Weather View 32 v70,2013-08-10 03:55:00,
2013-08-09 23:00:00,59.0,57.6,30.32,NNE,22,0.0,2.0,95,0.00,,,0.00,Weather View 32 v70,2013-08-10 04:00:00,
2013-08-09 23:01:00,59.0,57.6,30.32,NNE,22,0.0,2.0,95,0.00,,,0.00,Weather View 32 v70,2013-08-10 04:01:00,
2013-08-09 23:05:00,58.0,56.6,30.32,NNE,22,0.0,2.0,95,0.00,,,0.00,Weather View 32 v70,2013-08-10 04:05:00,
2013-08-09 23:10:00,58.0,56.6,30.32,NNE,22,0.0,2.0,95,0.00,,,0.00,Weather View 32 v70,2013-08-10 04:10:00,
2013-08-09 23:15:00,58.0,56.9,30.32,NNE,22,0.0,2.0,96,0.00,,,0.00,Weather View 32 v70,2013-08-10 04:15:00,
2013-08-09 23:20:00,58.0,56.9,30.32,NNE,22,0.0,2.0,96,0.00,,,0.00,Weather View 32 v70,2013-08-10 04:20:00,
2013-08-09 23:25:00,58.0,56.9,30.32,NNE,22,0.0,2.0,96,0.00,,,0.00,Weather View 32 v70,2013-08-10 04:25:00,
2013-08-09 23:30:00,58.0,57.2,30.32,NNE,22,0.0,2.0,97,0.00,,,0.00,Weather View 32 v70,2013-08-10 04:30:00,
2013-08-09 23:35:00,58.0,57.2,30.32,NNE,22,0.0,2.0,97,0.00,,,0.00,Weather View 32 v70,2013-08-10 04:35:00,
2013-08-09 23:40:00,58.0,57.2,30.32,NNE,22,0.0,2.0,97,0.00,,,0.00,Weather View 32 v70,2013-08-10 04:40:00,
2013-08-09 23:45:00,58.0,57.2,30.32,NNE,22,0.0,0.0,97,0.00,,,0.00,Weather View 32 v70,2013-08-10 04:45:00,
2013-08-09 23:50:00,58.0,57.2,30.33,NNE,22,0.0,0.0,97,0.00,,,0.00,Weather View 32 v70,2013-08-10 04:50:00,
2013-08-09 23:55:00,58.0,57.4,30.33,NNE,22,0.0,0.0,98,0.00,,,0.00,Weather View 32 v70,2013-08-10 04:55:00,